Time,TemperatureF,DewpointF,PressureIn,WindDirection,WindDirectionDegrees,WindSpeedMPH,WindSpeedGustMPH,Humidity,HourlyPrecipIn,Conditions,Clouds,dailyrainin,SoftwareType,DateUTC
2013-09-24 00:01:00,54.9,38.1,30.01,SSW,206,3.1,3.1,53,0.00,,---,0.00,VWS V13.01,2013-09-24 05:01:00,
2013-09-24 00:06:00,54.9,38.1,30.01,SSW,206,3.6,3.6,53,0.00,,---,0.00,VWS V13.01,2013-09-24 05:06:00,
2013-09-24 00:11:00,54.7,37.9,30.01,SSW,206,2.7,3.6,53,0.00,,---,0.00,VWS V13.01,2013-09-24 05:11:00,
2013-09-24 00:16:00,54.5,37.7,30.01,SSW,206,0.0,2.7,53,0.00,,---,0.00,VWS V13.01,2013-09-24 05:16:00,
2013-09-24 00:21:00,54.5,37.7,30.01,SSW,206,0.0,0.0,53,0.00,,---,0.00,VWS V13.01,2013-09-24 05:21:00,
2013-09-24 00:26:00,54.3,37.6,30.01,SSW,206,0.0,0.0,53,0.00,,---,0.00,VWS V13.01,2013-09-24 05:26:00,
2013-09-24 00:31:00,54.0,37.7,30.01,SSW,206,0.0,0.0,54,0.00,,---,0.00,VWS V13.01,2013-09-24 05:31:00,
2013-09-24 00:36:00,53.8,37.5,30.01,SSW,206,0.0,0.0,54,0.00,,---,0.00,VWS V13.01,2013-09-24 05:36:00,
2013-09-24 00:41:00,53.6,37.8,30.01,SSW,206,0.0,0.0,55,0.00,,---,0.00,VWS V13.01,2013-09-24 05:41:00,
2013-09-24 00:46:00,53.6,37.8,30.01,SSW,206,0.0,0.0,55,0.00,,---,0.00,VWS V13.01,2013-09-24 05:46:00,
2013-09-24 00:51:00,53.4,38.1,30.01,SSW,206,0.0,0.0,56,0.00,,---,0.00,VWS V13.01,2013-09-24 05:51:00,
2013-09-24 00:56:00,53.2,38.0,30.01,SSW,206,0.0,0.0,56,0.00,,---,0.00,VWS V13.01,2013-09-24 05:56:00,
2013-09-24 01:01:00,53.1,37.8,30.01,SSW,206,0.0,0.0,56,0.00,,---,0.00,VWS V13.01,2013-09-24 06:01:00,
2013-09-24 01:06:00,52.9,38.1,30.01,SSW,206,0.0,0.0,57,0.00,,---,0.00,VWS V13.01,2013-09-24 06:06:00,
2013-09-24 01:11:00,52.7,37.9,30.01,SSW,206,0.0,0.0,57,0.00,,---,0.00,VWS V13.01,2013-09-24 06:11:00,
2013-09-24 01:16:00,52.3,37.6,30.01,SSW,206,0.0,0.0,57,0.00,,---,0.00,VWS V13.01,2013-09-24 06:16:00,
2013-09-24 01:21:00,52.3,38.0,30.01,SSW,206,0.0,0.0,58,0.00,,---,0.00,VWS V13.01,2013-09-24 06:21:00,
2013-09-24 01:26:00,52.3,38.5,30.01,SSW,206,3.1,3.1,59,0.00,,---,0.00,VWS V13.01,2013-09-24 06:26:00,
2013-09-24 01:31:00,52.5,39.0,30.04,SSW,206,0.0,0.0,60,0.00,,---,0.00,VWS V13.01,2013-09-24 06:31:00,
2013-09-24 01:36:00,52.7,39.2,30.04,SSW,206,0.0,0.0,60,0.00,,---,0.00,VWS V13.01,2013-09-24 06:36:00,
2013-09-24 01:41:00,52.7,39.2,30.04,SSW,206,0.0,0.0,60,0.00,,---,0.00,VWS V13.01,2013-09-24 06:41:00,
2013-09-24 01:46:00,52.7,39.2,30.04,SSW,206,0.0,0.0,60,0.00,,---,0.00,VWS V13.01,2013-09-24 06:46:00,
2013-09-24 01:51:00,52.7,39.2,30.04,SSW,206,0.0,0.0,60,0.00,,---,0.00,VWS V13.01,2013-09-24 06:51:00,
2013-09-24 01:56:00,52.7,39.2,30.04,SSW,206,0.0,0.0,60,0.00,,---,0.00,VWS V13.01,2013-09-24 06:56:00,
2013-09-24 02:01:00,52.5,38.6,30.04,SSW,206,0.0,0.0,59,0.00,,---,0.00,VWS V13.01,2013-09-24 07:01:00,
2013-09-24 02:06:00,52.2,38.3,30.04,SSW,206,0.0,0.0,59,0.00,,---,0.00,VWS V13.01,2013-09-24 07:06:00,
2013-09-24 02:11:00,51.6,37.8,30.04,SSW,206,0.0,0.0,59,0.00,,---,0.00,VWS V13.01,2013-09-24 07:11:00,
2013-09-24 02:16:00,51.1,37.7,30.04,SSW,206,0.0,0.0,60,0.00,,---,0.00,VWS V13.01,2013-09-24 07:16:00,
2013-09-24 02:21:00,50.5,37.2,30.04,SSW,206,0.0,0.0,60,0.00,,---,0.00,VWS V13.01,2013-09-24 07:21:00,
2013-09-24 02:26:00,50.2,37.3,30.04,SSW,206,0.0,0.0,61,0.00,,---,0.00,VWS V13.01,2013-09-24 07:26:00,
2013-09-24 02:31:00,49.8,37.3,30.04,SSW,206,0.0,0.0,62,0.00,,---,0.00,VWS V13.01,2013-09-24 07:31:00,
2013-09-24 02:36:00,49.6,37.6,30.04,SSW,206,0.0,0.0,63,0.00,,---,0.00,VWS V13.01,2013-09-24 07:36:00,
2013-09-24 02:41:00,49.3,37.6,30.04,SSW,206,0.0,0.0,64,0.00,,---,0.00,VWS V13.01,2013-09-24 07:41:00,
2013-09-24 02:46:00,49.1,37.5,30.04,SSW,206,0.0,0.0,64,0.00,,---,0.00,VWS V13.01,2013-09-24 07:46:00,
2013-09-24 02:51:00,48.9,37.7,30.04,SSW,206,0.0,0.0,65,0.00,,---,0.00,VWS V13.01,2013-09-24 07:51:00,
2013-09-24 02:56:00,48.7,37.9,30.04,SSW,206,0.0,0.0,66,0.00,,---,0.00,VWS V13.01,2013-09-24 07:56:00,
2013-09-24 03:02:00,48.7,37.9,30.04,SSW,206,0.0,0.0,66,0.00,,---,0.00,VWS V13.01,2013-09-24 08:02:00,
2013-09-24 03:07:00,48.6,38.1,30.04,SSW,206,0.0,0.0,67,0.00,,---,0.00,VWS V13.01,2013-09-24 08:07:00,
2013-09-24 03:12:00,48.6,38.1,30.04,SSW,206,0.0,0.0,67,0.00,,---,0.00,VWS V13.01,2013-09-24 08:12:00,
2013-09-24 03:17:00,48.7,38.7,30.04,SSW,206,0.0,0.0,68,0.00,,---,0.00,VWS V13.01,2013-09-24 08:17:00,
2013-09-24 03:22:00,48.6,38.5,30.04,SSW,206,0.0,0.0,68,0.00,,---,0.00,VWS V13.01,2013-09-24 08:22:00,
2013-09-24 03:27:00,48.7,39.0,30.04,SSW,206,0.0,0.0,69,0.00,,---,0.00,VWS V13.01,2013-09-24 08:27:00,
2013-09-24 03:32:00,48.7,39.0,30.04,SSW,206,0.0,0.0,69,0.00,,---,0.00,VWS V13.01,2013-09-24 08:32:00,
2013-09-24 03:37:00,48.7,39.0,30.04,SSW,206,0.0,0.0,69,0.00,,---,0.00,VWS V13.01,2013-09-24 08:37:00,
2013-09-24 03:42:00,48.9,39.6,30.04,SSW,206,0.0,0.0,70,0.00,,---,0.00,VWS V13.01,2013-09-24 08:42:00,
2013-09-24 03:47:00,48.9,39.9,30.04,SSW,206,0.0,0.0,71,0.00,,---,0.00,VWS V13.01,2013-09-24 08:47:00,
2013-09-24 03:52:00,49.1,40.1,30.04,SSW,206,0.0,0.0,71,0.00,,---,0.00,VWS V13.01,2013-09-24 08:52:00,
2013-09-24 03:57:00,48.9,39.9,30.04,SSW,206,0.0,0.0,71,0.00,,---,0.00,VWS V13.01,2013-09-24 08:57:00,
2013-09-24 04:02:00,48.7,39.8,30.04,SSW,206,0.0,0.0,71,0.00,,---,0.00,VWS V13.01,2013-09-24 09:02:00,
2013-09-24 04:07:00,48.7,39.8,30.04,SSW,206,0.0,0.0,71,0.00,,---,0.00,VWS V13.01,2013-09-24 09:07:00,
2013-09-24 04:12:00,48.7,40.1,30.04,SSW,206,0.0,0.0,72,0.00,,---,0.00,VWS V13.01,2013-09-24 09:12:00,
2013-09-24 04:18:00,48.7,40.1,30.04,SSW,206,0.0,0.0,72,0.00,,---,0.00,VWS V13.01,2013-09-24 09:18:00,
2013-09-24 04:23:00,48.9,40.3,30.04,SSW,206,0.0,0.0,72,0.00,,---,0.00,VWS V13.01,2013-09-24 09:23:00,
2013-09-24 04:28:00,49.1,40.8,30.04,SSW,206,0.0,0.0,73,0.00,,---,0.00,VWS V13.01,2013-09-24 09:28:00,
2013-09-24 04:33:00,49.3,41.0,30.04,SSW,206,0.0,0.0,73,0.00,,---,0.00,VWS V13.01,2013-09-24 09:33:00,
2013-09-24 04:38:00,49.3,41.0,30.04,SSW,206,0.0,0.0,73,0.00,,---,0.00,VWS V13.01,2013-09-24 09:38:00,
2013-09-24 04:43:00,49.1,40.8,30.04,SSW,206,0.0,0.0,73,0.00,,---,0.00,VWS V13.01,2013-09-24 09:43:00,
2013-09-24 04:48:00,48.9,40.3,30.04,SSW,206,0.0,0.0,72,0.00,,---,0.00,VWS V13.01,2013-09-24 09:48:00,
2013-09-24 04:53:00,48.9,40.7,30.04,SSW,206,0.0,0.0,73,0.00,,---,0.00,VWS V13.01,2013-09-24 09:53:00,
2013-09-24 04:58:00,48.7,40.1,30.04,SSW,206,0.0,0.0,72,0.00,,---,0.00,VWS V13.01,2013-09-24 09:58:00,
2013-09-24 05:04:00,48.6,40.0,30.04,SSW,206,0.0,0.0,72,0.00,,---,0.00,VWS V13.01,2013-09-24 10:04:00,
2013-09-24 05:09:00,48.2,39.6,30.04,SSW,206,0.0,0.0,72,0.00,,---,0.00,VWS V13.01,2013-09-24 10:09:00,
2013-09-24 05:14:00,48.0,39.8,30.04,SSW,206,0.0,0.0,73,0.00,,---,0.00,VWS V13.01,2013-09-24 10:14:00,
2013-09-24 05:19:00,47.8,39.3,30.04,SSW,206,0.0,0.0,72,0.00,,---,0.00,VWS V13.01,2013-09-24 10:19:00,
2013-09-24 05:24:00,47.8,39.6,30.04,SSW,206,0.0,0.0,73,0.00,,---,0.00,VWS V13.01,2013-09-24 10:24:00,
2013-09-24 05:29:00,47.8,39.6,30.04,SSW,206,0.0,0.0,73,0.00,,---,0.00,VWS V13.01,2013-09-24 10:29:00,
2013-09-24 05:34:00,47.8,39.6,30.04,SSW,206,0.0,0.0,73,0.00,,---,0.00,VWS V13.01,2013-09-24 10:34:00,
2013-09-24 05:39:00,48.0,39.8,30.04,SSW,206,0.0,0.0,73,0.00,,---,0.00,VWS V13.01,2013-09-24 10:39:00,
2013-09-24 05:44:00,48.0,39.8,30.04,SSW,206,0.0,0.0,73,0.00,,---,0.00,VWS V13.01,2013-09-24 10:44:00,
2013-09-24 05:49:00,48.0,40.1,30.04,SSW,206,0.0,0.0,74,0.00,,---,0.00,VWS V13.01,2013-09-24 10:49:00,
2013-09-24 05:54:00,48.0,40.1,30.04,SSW,206,0.0,0.0,74,0.00,,---,0.00,VWS V13.01,2013-09-24 10:54:00,
2013-09-24 05:59:00,48.2,40.3,30.04,SSW,206,0.0,0.0,74,0.00,,---,0.00,VWS V13.01,2013-09-24 10:59:00,
2013-09-24 06:04:00,48.2,40.3,30.04,SSW,206,0.0,0.0,74,0.00,,---,0.00,VWS V13.01,2013-09-24 11:04:00,
2013-09-24 06:09:00,48.2,40.3,30.04,SSW,206,0.0,0.0,74,0.00,,---,0.00,VWS V13.01,2013-09-24 11:09:00,
2013-09-24 06:14:00,48.2,40.7,30.04,SSW,206,0.0,0.0,75,0.00,,---,0.00,VWS V13.01,2013-09-24 11:14:00,
2013-09-24 06:19:00,48.2,40.7,30.04,SSW,206,0.0,0.0,75,0.00,,---,0.00,VWS V13.01,2013-09-24 11:19:00,
2013-09-24 06:24:00,48.2,40.7,30.04,SSW,206,0.0,0.0,75,0.00,,---,0.00,VWS V13.01,2013-09-24 11:24:00,
2013-09-24 06:29:00,48.2,40.7,30.04,SSW,206,0.0,0.0,75,0.00,,---,0.00,VWS V13.01,2013-09-24 11:29:00,
2013-09-24 06:34:00,48.2,40.7,30.04,SSW,206,0.0,0.0,75,0.00,,---,0.00,VWS V13.01,2013-09-24 11:34:00,
2013-09-24 06:39:00,48.2,40.7,30.04,SSW,206,0.0,0.0,75,0.00,,---,0.00,VWS V13.01,2013-09-24 11:39:00,
2013-09-24 06:44:00,48.0,40.8,30.04,SSW,206,0.0,0.0,76,0.00,,---,0.00,VWS V13.01,2013-09-24 11:44:00,
2013-09-24 06:50:00,48.0,40.8,30.04,SSW,206,0.0,0.0,76,0.00,,---,0.00,VWS V13.01,2013-09-24 11:50:00,
2013-09-24 06:55:00,47.8,40.7,30.04,SSW,206,0.0,0.0,76,0.00,,---,0.00,VWS V13.01,2013-09-24 11:55:00,
2013-09-24 07:00:00,47.8,40.7,30.04,SSW,206,0.0,0.0,76,0.00,,---,0.00,VWS V13.01,2013-09-24 12:00:00,
2013-09-24 07:05:00,47.8,40.7,30.04,SSW,206,0.0,0.0,76,0.00,,---,0.00,VWS V13.01,2013-09-24 12:05:00,
2013-09-24 07:10:00,47.8,40.7,30.04,SSW,206,0.0,0.0,76,0.00,,---,0.00,VWS V13.01,2013-09-24 12:10:00,
2013-09-24 07:15:00,48.0,40.8,30.04,SSW,206,0.0,0.0,76,0.00,,---,0.00,VWS V13.01,2013-09-24 12:15:00,
2013-09-24 07:20:00,48.0,40.8,30.04,SSW,206,0.0,0.0,76,0.00,,---,0.00,VWS V13.01,2013-09-24 12:20:00,
2013-09-24 07:25:00,48.2,41.0,30.04,SSW,206,0.0,0.0,76,0.00,,---,0.00,VWS V13.01,2013-09-24 12:25:00,
2013-09-24 07:30:00,48.2,41.0,30.04,SSW,206,0.0,0.0,76,0.00,,---,0.00,VWS V13.01,2013-09-24 12:30:00,
2013-09-24 07:35:00,48.4,41.2,30.04,SSW,206,0.0,0.0,76,0.00,,---,0.00,VWS V13.01,2013-09-24 12:35:00,
2013-09-24 07:40:00,48.4,41.2,30.04,SSW,206,4.5,4.5,76,0.00,,---,0.00,VWS V13.01,2013-09-24 12:40:00,
2013-09-24 07:45:00,48.6,41.3,30.04,SSW,206,3.6,4.0,76,0.00,,---,0.00,VWS V13.01,2013-09-24 12:45:00,
2013-09-24 07:50:00,48.6,41.3,30.04,SSW,206,4.0,4.0,76,0.00,,---,0.00,VWS V13.01,2013-09-24 12:50:00,
2013-09-24 07:55:00,48.7,41.5,30.04,SSW,206,3.6,3.6,76,0.00,,---,0.00,VWS V13.01,2013-09-24 12:55:00,
2013-09-24 08:00:00,48.9,41.7,30.04,SSW,206,3.6,3.6,76,0.00,,---,0.00,VWS V13.01,2013-09-24 13:00:00,
2013-09-24 08:05:00,49.1,41.9,30.04,SSW,206,4.0,4.0,76,0.00,,---,0.00,VWS V13.01,2013-09-24 13:05:00,
2013-09-24 08:10:00,49.3,42.0,30.04,SSW,206,3.6,3.6,76,0.00,,---,0.00,VWS V13.01,2013-09-24 13:10:00,
2013-09-24 08:15:00,49.6,42.0,30.04,SSW,206,3.6,3.6,75,0.00,,---,0.00,VWS V13.01,2013-09-24 13:15:00,
2013-09-24 08:21:00,49.8,42.2,30.04,SSW,206,3.6,3.6,75,0.00,,---,0.00,VWS V13.01,2013-09-24 13:21:00,
2013-09-24 08:26:00,50.2,42.2,30.04,SSW,206,4.0,4.0,74,0.00,,---,0.00,VWS V13.01,2013-09-24 13:26:00,
2013-09-24 08:31:00,50.2,41.9,30.04,SSW,206,4.0,4.0,73,0.00,,---,0.00,VWS V13.01,2013-09-24 13:31:00,
2013-09-24 08:36:00,50.4,41.3,30.04,SSW,206,0.0,4.5,71,0.00,,---,0.00,VWS V13.01,2013-09-24 13:36:00,
2013-09-24 08:41:00,50.7,41.3,30.04,SSW,206,3.6,4.0,70,0.00,,---,0.00,VWS V13.01,2013-09-24 13:41:00,
2013-09-24 08:46:00,50.9,41.1,30.04,SSW,206,3.1,3.1,69,0.00,,---,0.00,VWS V13.01,2013-09-24 13:46:00,
2013-09-24 08:51:00,51.1,40.9,30.04,SSW,206,3.6,3.6,68,0.00,,---,0.00,VWS V13.01,2013-09-24 13:51:00,
2013-09-24 08:56:00,51.4,40.9,30.04,SSW,206,2.7,4.0,67,0.00,,---,0.00,VWS V13.01,2013-09-24 13:56:00,
2013-09-24 09:01:00,51.6,40.7,30.07,SSW,206,3.6,3.6,66,0.00,,---,0.00,VWS V13.01,2013-09-24 14:01:00,
2013-09-24 09:06:00,52.0,40.6,30.07,SSW,206,0.0,3.6,65,0.00,,---,0.00,VWS V13.01,2013-09-24 14:06:00,
2013-09-24 09:11:00,52.2,39.5,30.07,SW,221,3.1,3.1,62,0.00,,---,0.00,VWS V13.01,2013-09-24 14:11:00,
2013-09-24 09:16:00,52.5,39.9,30.07,SW,221,3.1,3.6,62,0.00,,---,0.00,VWS V13.01,2013-09-24 14:16:00,
2013-09-24 09:21:00,52.7,39.6,30.07,SW,221,2.7,3.6,61,0.00,,---,0.00,VWS V13.01,2013-09-24 14:21:00,
2013-09-24 09:26:00,53.1,40.0,30.07,SW,221,2.7,3.6,61,0.00,,---,0.00,VWS V13.01,2013-09-24 14:26:00,
2013-09-24 09:31:00,53.2,39.7,30.07,SW,221,4.0,4.0,60,0.00,,---,0.00,VWS V13.01,2013-09-24 14:31:00,
2013-09-24 09:36:00,53.6,39.2,30.07,SW,221,3.1,4.5,58,0.00,,---,0.00,VWS V13.01,2013-09-24 14:36:00,
2013-09-24 09:41:00,54.0,39.1,30.07,SW,221,2.7,4.0,57,0.00,,---,0.00,VWS V13.01,2013-09-24 14:41:00,
2013-09-24 09:46:00,54.3,39.0,30.04,SW,221,0.0,0.0,56,0.00,,---,0.00,VWS V13.01,2013-09-24 14:46:00,
2013-09-24 09:51:00,54.7,39.3,30.04,SW,221,0.0,0.0,56,0.00,,---,0.00,VWS V13.01,2013-09-24 14:51:00,
2013-09-24 09:56:00,55.0,39.2,30.04,SW,221,0.0,0.0,55,0.00,,---,0.00,VWS V13.01,2013-09-24 14:56:00,
2013-09-24 10:01:00,55.4,38.6,30.07,SW,221,0.0,0.0,53,0.00,,---,0.00,VWS V13.01,2013-09-24 15:01:00,
2013-09-24 10:06:00,55.9,39.1,30.07,SW,221,2.7,3.1,53,0.00,,---,0.00,VWS V13.01,2013-09-24 15:06:00,
2013-09-24 10:11:00,56.3,38.9,30.07,SW,221,0.0,0.0,52,0.00,,---,0.00,VWS V13.01,2013-09-24 15:11:00,
2013-09-24 10:16:00,56.5,38.6,30.04,SW,221,4.0,4.7,51,0.00,,---,0.00,VWS V13.01,2013-09-24 15:16:00,
2013-09-24 10:21:00,56.8,38.4,30.04,SW,221,4.5,4.5,50,0.00,,---,0.00,VWS V13.01,2013-09-24 15:21:00,
2013-09-24 10:26:00,57.2,38.2,30.04,SW,221,4.5,4.5,49,0.00,,---,0.00,VWS V13.01,2013-09-24 15:26:00,
2013-09-24 10:31:00,57.6,38.6,30.04,SW,221,0.0,3.1,49,0.00,,---,0.00,VWS V13.01,2013-09-24 15:31:00,
2013-09-24 10:36:00,58.1,39.1,30.04,SW,221,4.7,4.7,49,0.00,,---,0.00,VWS V13.01,2013-09-24 15:36:00,
2013-09-24 10:42:00,58.5,38.3,30.04,SW,221,0.0,0.0,47,0.00,,---,0.00,VWS V13.01,2013-09-24 15:42:00,
2013-09-24 10:47:00,58.8,38.7,30.04,SW,221,0.0,3.1,47,0.00,,---,0.00,VWS V13.01,2013-09-24 15:47:00,
2013-09-24 10:52:00,59.2,38.4,30.04,SW,221,0.0,0.0,46,0.00,,---,0.00,VWS V13.01,2013-09-24 15:52:00,
2013-09-24 10:57:00,59.5,39.3,30.04,SW,221,3.1,4.0,47,0.00,,---,0.00,VWS V13.01,2013-09-24 15:57:00,
2013-09-24 11:02:00,60.1,39.2,30.04,SW,221,0.0,0.0,46,0.00,,---,0.00,VWS V13.01,2013-09-24 16:02:00,
2013-09-24 11:07:00,60.4,39.6,30.04,SW,221,4.5,4.5,46,0.00,,---,0.00,VWS V13.01,2013-09-24 16:07:00,
2013-09-24 11:12:00,61.0,38.9,30.04,West,265,0.0,0.0,44,0.00,,---,0.00,VWS V13.01,2013-09-24 16:12:00,
2013-09-24 11:17:00,61.3,38.7,30.04,West,265,0.0,0.0,43,0.00,,---,0.00,VWS V13.01,2013-09-24 16:17:00,
2013-09-24 11:22:00,61.9,39.2,30.04,West,265,0.0,0.0,43,0.00,,---,0.00,VWS V13.01,2013-09-24 16:22:00,
2013-09-24 11:27:00,62.2,39.5,30.04,West,265,2.7,2.7,43,0.00,,---,0.00,VWS V13.01,2013-09-24 16:27:00,
2013-09-24 11:32:00,62.8,39.4,30.04,West,265,0.0,0.0,42,0.00,,---,0.00,VWS V13.01,2013-09-24 16:32:00,
2013-09-24 11:37:00,63.1,38.5,30.04,SSW,211,0.0,0.0,40,0.00,,---,0.00,VWS V13.01,2013-09-24 16:37:00,
2013-09-24 11:42:00,63.5,38.1,30.04,SSW,206,0.0,0.0,39,0.00,,---,0.00,VWS V13.01,2013-09-24 16:42:00,
2013-09-24 11:47:00,63.9,37.8,30.04,South,172,0.0,0.0,38,0.00,,---,0.00,VWS V13.01,2013-09-24 16:47:00,
2013-09-24 11:52:00,64.2,37.4,30.04,SW,223,0.0,0.0,37,0.00,,---,0.00,VWS V13.01,2013-09-24 16:52:00,
2013-09-24 11:57:00,64.4,37.6,30.04,SW,223,0.0,0.0,37,0.00,,---,0.00,VWS V13.01,2013-09-24 16:57:00,
2013-09-24 12:02:00,64.8,38.6,30.04,SW,223,0.0,0.0,38,0.00,,---,0.00,VWS V13.01,2013-09-24 17:02:00,
2013-09-24 12:07:00,65.1,38.9,30.04,ESE,108,0.0,3.6,38,0.00,,---,0.00,VWS V13.01,2013-09-24 17:07:00,
2013-09-24 12:12:00,65.5,38.5,30.04,SSW,211,0.0,0.0,37,0.00,,---,0.00,VWS V13.01,2013-09-24 17:12:00,
2013-09-24 12:17:00,65.8,38.2,30.04,West,262,3.1,3.1,36,0.00,,---,0.00,VWS V13.01,2013-09-24 17:17:00,
2013-09-24 12:22:00,66.2,37.8,30.04,West,261,0.0,3.1,35,0.00,,---,0.00,VWS V13.01,2013-09-24 17:22:00,
2013-09-24 12:27:00,66.6,38.1,30.04,West,262,0.0,0.0,35,0.00,,---,0.00,VWS V13.01,2013-09-24 17:27:00,
2013-09-24 12:32:00,66.9,38.4,30.04,West,262,0.0,0.0,35,0.00,,---,0.00,VWS V13.01,2013-09-24 17:32:00,
2013-09-24 12:37:00,67.1,38.6,30.04,WNW,288,0.0,3.6,35,0.00,,---,0.00,VWS V13.01,2013-09-24 17:37:00,
2013-09-24 12:42:00,67.5,38.9,30.04,WNW,287,0.0,0.0,35,0.00,,---,0.00,VWS V13.01,2013-09-24 17:42:00,
2013-09-24 12:47:00,67.6,39.0,30.04,WNW,287,0.0,0.0,35,0.00,,---,0.00,VWS V13.01,2013-09-24 17:47:00,
2013-09-24 12:52:00,68.0,38.6,30.04,WNW,287,0.0,0.0,34,0.00,,---,0.00,VWS V13.01,2013-09-24 17:52:00,
2013-09-24 12:57:00,68.2,38.0,30.04,WNW,288,0.0,0.0,33,0.00,,---,0.00,VWS V13.01,2013-09-24 17:57:00,
2013-09-24 13:02:00,68.5,38.3,30.04,WNW,288,0.0,0.0,33,0.00,,---,0.00,VWS V13.01,2013-09-24 18:02:00,
2013-09-24 13:07:00,68.9,38.6,30.04,WNW,288,0.0,0.0,33,0.00,,---,0.00,VWS V13.01,2013-09-24 18:07:00,
2013-09-24 13:12:00,69.3,39.0,30.04,WSW,254,4.7,5.6,33,0.00,,---,0.00,VWS V13.01,2013-09-24 18:12:00,
2013-09-24 13:17:00,70.2,39.0,30.04,SW,230,3.1,4.7,32,0.00,,---,0.00,VWS V13.01,2013-09-24 18:17:00,
2013-09-24 13:22:00,70.9,39.6,30.04,SW,236,0.0,0.0,32,0.00,,---,0.00,VWS V13.01,2013-09-24 18:22:00,
2013-09-24 13:28:00,71.1,38.9,30.01,SSW,211,0.0,3.6,31,0.00,,---,0.00,VWS V13.01,2013-09-24 18:28:00,
2013-09-24 13:33:00,71.1,38.9,30.01,SSW,211,0.0,0.0,31,0.00,,---,0.00,VWS V13.01,2013-09-24 18:33:00,
2013-09-24 13:38:00,71.2,39.1,30.01,WSW,248,3.1,4.0,31,0.00,,---,0.00,VWS V13.01,2013-09-24 18:38:00,
2013-09-24 13:43:00,71.6,38.6,30.01,WSW,248,0.0,0.0,30,0.00,,---,0.00,VWS V13.01,2013-09-24 18:43:00,
2013-09-24 13:48:00,71.6,38.6,30.01,ENE,69,0.0,3.1,30,0.00,,---,0.00,VWS V13.01,2013-09-24 18:48:00,
2013-09-24 13:53:00,72.3,37.4,30.01,SSW,192,4.7,4.7,28,0.00,,---,0.00,VWS V13.01,2013-09-24 18:53:00,
2013-09-24 13:58:00,73.0,37.1,30.01,WSW,241,4.5,4.5,27,0.00,,---,0.00,VWS V13.01,2013-09-24 18:58:00,
2013-09-24 14:03:00,73.4,36.5,30.01,WSW,248,0.0,0.0,26,0.00,,---,0.00,VWS V13.01,2013-09-24 19:03:00,
2013-09-24 14:08:00,73.9,35.9,30.01,SW,226,4.0,4.0,25,0.00,,---,0.00,VWS V13.01,2013-09-24 19:08:00,
2013-09-24 14:13:00,74.1,36.1,30.01,SSE,166,0.0,0.0,25,0.00,,---,0.00,VWS V13.01,2013-09-24 19:13:00,
2013-09-24 14:18:00,74.8,36.7,30.01,SSE,166,0.0,0.0,25,0.00,,---,0.00,VWS V13.01,2013-09-24 19:18:00,
2013-09-24 14:23:00,75.6,35.2,30.01,South,179,2.7,4.0,23,0.00,,---,0.00,VWS V13.01,2013-09-24 19:23:00,
2013-09-24 14:28:00,75.2,34.9,30.01,SW,229,3.6,3.6,23,0.00,,---,0.00,VWS V13.01,2013-09-24 19:28:00,
2013-09-24 14:33:00,75.0,35.8,30.01,SSE,157,0.0,0.0,24,0.00,,---,0.00,VWS V13.01,2013-09-24 19:33:00,
2013-09-24 14:38:00,75.0,34.7,30.01,SW,221,4.0,4.5,23,0.00,,---,0.00,VWS V13.01,2013-09-24 19:38:00,
2013-09-24 14:43:00,74.8,35.7,30.01,SW,232,0.0,2.7,24,0.00,,---,0.00,VWS V13.01,2013-09-24 19:43:00,
2013-09-24 14:48:00,75.0,35.8,30.01,SW,232,0.0,0.0,24,0.00,,---,0.00,VWS V13.01,2013-09-24 19:48:00,
2013-09-24 14:53:00,75.0,34.7,30.01,West,267,3.1,3.1,23,0.00,,---,0.00,VWS V13.01,2013-09-24 19:53:00,
2013-09-24 14:58:00,75.4,36.1,30.01,West,267,0.0,0.0,24,0.00,,---,0.00,VWS V13.01,2013-09-24 19:58:00,
2013-09-24 15:03:00,75.4,35.0,30.01,West,267,0.0,0.0,23,0.00,,---,0.00,VWS V13.01,2013-09-24 20:03:00,
2013-09-24 15:08:00,75.6,35.2,30.01,West,267,0.0,0.0,23,0.00,,---,0.00,VWS V13.01,2013-09-24 20:08:00,
2013-09-24 15:13:00,75.7,36.4,29.98,West,267,0.0,0.0,24,0.00,,---,0.00,VWS V13.01,2013-09-24 20:13:00,
2013-09-24 15:18:00,75.6,36.3,29.98,West,267,0.0,0.0,24,0.00,,---,0.00,VWS V13.01,2013-09-24 20:18:00,
2013-09-24 15:23:00,75.4,35.0,29.98,West,267,0.0,0.0,23,0.00,,---,0.00,VWS V13.01,2013-09-24 20:23:00,
2013-09-24 15:28:00,75.4,35.0,29.98,West,267,0.0,0.0,23,0.00,,---,0.00,VWS V13.01,2013-09-24 20:28:00,
2013-09-24 15:33:00,75.0,35.8,29.98,SE,135,0.0,0.0,24,0.00,,---,0.00,VWS V13.01,2013-09-24 20:33:00,
2013-09-24 15:38:00,74.1,34.0,29.98,SSW,207,0.0,2.7,23,0.00,,---,0.00,VWS V13.01,2013-09-24 20:38:00,
2013-09-24 15:43:00,73.2,34.3,29.98,SSW,198,3.1,3.1,24,0.00,,---,0.00,VWS V13.01,2013-09-24 20:43:00,
2013-09-24 15:48:00,72.9,34.0,29.98,SE,139,2.7,2.7,24,0.00,,---,0.00,VWS V13.01,2013-09-24 20:48:00,
2013-09-24 15:53:00,72.3,34.6,29.98,SE,139,0.0,0.0,25,0.00,,---,0.00,VWS V13.01,2013-09-24 20:53:00,
2013-09-24 15:58:00,71.4,37.5,29.98,SSE,149,0.0,0.0,29,0.00,,---,0.00,VWS V13.01,2013-09-24 20:58:00,
2013-09-24 16:03:00,70.9,39.6,29.98,ESE,102,0.0,0.0,32,0.00,,---,0.00,VWS V13.01,2013-09-24 21:03:00,
2013-09-24 16:08:00,70.5,39.3,29.98,ENE,72,0.0,0.0,32,0.00,,---,0.00,VWS V13.01,2013-09-24 21:08:00,
2013-09-24 16:13:00,70.0,38.8,29.98,East,100,0.0,0.0,32,0.00,,---,0.00,VWS V13.01,2013-09-24 21:13:00,
2013-09-24 16:18:00,69.4,39.1,29.98,NE,39,0.0,0.0,33,0.00,,---,0.00,VWS V13.01,2013-09-24 21:18:00,
2013-09-24 16:23:00,68.5,38.3,29.98,ENE,69,0.0,0.0,33,0.00,,---,0.00,VWS V13.01,2013-09-24 21:23:00,
2013-09-24 16:28:00,67.8,39.2,29.98,NE,51,0.0,0.0,35,0.00,,---,0.00,VWS V13.01,2013-09-24 21:28:00,
2013-09-24 16:33:00,67.1,38.6,29.98,NE,41,4.0,4.0,35,0.00,,---,0.00,VWS V13.01,2013-09-24 21:33:00,
2013-09-24 16:38:00,66.2,37.8,29.98,NE,54,0.0,0.0,35,0.00,,---,0.00,VWS V13.01,2013-09-24 21:38:00,
2013-09-24 16:43:00,65.7,38.7,29.98,NE,49,0.0,0.0,37,0.00,,---,0.00,VWS V13.01,2013-09-24 21:43:00,
2013-09-24 16:48:00,65.3,38.4,29.98,ENE,66,0.0,0.0,37,0.00,,---,0.00,VWS V13.01,2013-09-24 21:48:00,
2013-09-24 16:53:00,64.8,37.9,29.98,NE,51,0.0,0.0,37,0.00,,---,0.00,VWS V13.01,2013-09-24 21:53:00,
2013-09-24 16:58:00,64.2,38.1,29.98,ENE,62,0.0,0.0,38,0.00,,---,0.00,VWS V13.01,2013-09-24 21:58:00,
2013-09-24 17:03:00,63.5,38.1,29.98,NE,50,0.0,0.0,39,0.00,,---,0.00,VWS V13.01,2013-09-24 22:03:00,
2013-09-24 17:08:00,63.3,38.6,29.98,NE,38,2.7,4.0,40,0.00,,---,0.00,VWS V13.01,2013-09-24 22:08:00,
2013-09-24 17:13:00,63.0,38.9,29.98,NE,41,0.0,2.7,41,0.00,,---,0.00,VWS V13.01,2013-09-24 22:13:00,
2013-09-24 17:18:00,62.6,39.2,29.98,ENE,60,0.0,0.0,42,0.00,,---,0.00,VWS V13.01,2013-09-24 22:18:00,
2013-09-24 17:23:00,62.2,40.1,29.98,NE,56,3.6,4.0,44,0.00,,---,0.00,VWS V13.01,2013-09-24 22:23:00,
2013-09-24 17:28:00,61.9,39.8,29.98,NE,54,0.0,0.0,44,0.00,,---,0.00,VWS V13.01,2013-09-24 22:28:00,
2013-09-24 17:33:00,61.5,40.0,29.98,ENE,76,0.0,0.0,45,0.00,,---,0.00,VWS V13.01,2013-09-24 22:33:00,
2013-09-24 17:38:00,61.2,40.8,29.98,NE,54,0.0,0.0,47,0.00,,---,0.00,VWS V13.01,2013-09-24 22:38:00,
2013-09-24 17:43:00,61.0,41.2,29.98,NE,53,0.0,0.0,48,0.00,,---,0.00,VWS V13.01,2013-09-24 22:43:00,
2013-09-24 17:48:00,60.8,41.5,29.98,NE,51,2.7,4.0,49,0.00,,---,0.00,VWS V13.01,2013-09-24 22:48:00,
2013-09-24 17:53:00,60.6,42.4,29.98,NE,55,3.6,3.6,51,0.00,,---,0.00,VWS V13.01,2013-09-24 22:53:00,
2013-09-24 17:58:00,60.4,42.2,29.98,NE,55,3.6,4.0,51,0.00,,---,0.00,VWS V13.01,2013-09-24 22:58:00,
2013-09-24 18:03:00,60.3,42.6,29.98,NNE,19,3.6,4.0,52,0.00,,---,0.00,VWS V13.01,2013-09-24 23:03:00,
2013-09-24 18:08:00,60.1,42.4,29.98,NE,38,3.6,3.6,52,0.00,,---,0.00,VWS V13.01,2013-09-24 23:08:00,
2013-09-24 18:13:00,59.9,42.2,29.98,NE,38,3.6,3.6,52,0.00,,---,0.00,VWS V13.01,2013-09-24 23:13:00,
2013-09-24 18:18:00,59.7,42.1,29.98,NE,38,3.1,3.1,52,0.00,,---,0.00,VWS V13.01,2013-09-24 23:18:00,
2013-09-24 18:23:00,59.4,42.2,29.98,NE,38,3.6,3.6,53,0.00,,---,0.00,VWS V13.01,2013-09-24 23:23:00,
2013-09-24 18:28:00,59.2,42.1,29.98,NE,38,2.7,3.6,53,0.00,,---,0.00,VWS V13.01,2013-09-24 23:28:00,
2013-09-24 18:33:00,59.0,41.9,29.98,NE,39,0.0,0.0,53,0.00,,---,0.00,VWS V13.01,2013-09-24 23:33:00,
2013-09-24 18:38:00,58.8,42.2,29.98,NE,38,0.0,0.0,54,0.00,,---,0.00,VWS V13.01,2013-09-24 23:38:00,
2013-09-24 18:43:00,58.5,42.4,29.98,NE,38,0.0,0.0,55,0.00,,---,0.00,VWS V13.01,2013-09-24 23:43:00,
2013-09-24 18:48:00,58.1,42.5,29.98,NE,38,0.0,0.0,56,0.00,,---,0.00,VWS V13.01,2013-09-24 23:48:00,
2013-09-24 18:53:00,57.9,42.8,29.98,NE,38,0.0,0.0,57,0.00,,---,0.00,VWS V13.01,2013-09-24 23:53:00,
2013-09-24 18:58:00,57.6,42.9,29.98,NE,38,0.0,0.0,58,0.00,,---,0.00,VWS V13.01,2013-09-24 23:58:00,
2013-09-24 19:04:00,57.0,43.3,29.98,NE,38,0.0,0.0,60,0.00,,---,0.00,VWS V13.01,2013-09-25 00:04:00,
2013-09-24 19:09:00,56.7,43.0,29.98,NE,38,0.0,0.0,60,0.00,,---,0.00,VWS V13.01,2013-09-25 00:09:00,
2013-09-24 19:13:00,56.3,43.0,30.01,NE,38,0.0,0.0,61,0.00,,---,0.00,VWS V13.01,2013-09-25 00:13:00,
2013-09-24 19:18:00,56.1,42.9,30.01,NE,38,2.7,2.7,61,0.00,,---,0.00,VWS V13.01,2013-09-25 00:18:00,
2013-09-24 19:23:00,55.8,43.4,30.01,NE,38,0.0,0.0,63,0.00,,---,0.00,VWS V13.01,2013-09-25 00:23:00,
2013-09-24 19:29:00,55.6,43.2,30.01,NE,38,0.0,0.0,63,0.00,,---,0.00,VWS V13.01,2013-09-25 00:29:00,
2013-09-24 19:34:00,55.2,43.7,30.01,NE,39,0.0,0.0,65,0.00,,---,0.00,VWS V13.01,2013-09-25 00:34:00,
2013-09-24 19:39:00,54.9,43.3,30.01,NE,38,0.0,0.0,65,0.00,,---,0.00,VWS V13.01,2013-09-25 00:39:00,
2013-09-24 19:44:00,54.7,43.6,30.01,NE,38,0.0,2.7,66,0.00,,---,0.00,VWS V13.01,2013-09-25 00:44:00,
2013-09-24 19:49:00,54.5,43.8,30.01,NE,38,3.1,3.6,67,0.00,,---,0.00,VWS V13.01,2013-09-25 00:49:00,
2013-09-24 19:54:00,54.3,43.6,30.01,NE,38,3.6,3.6,67,0.00,,---,0.00,VWS V13.01,2013-09-25 00:54:00,
2013-09-24 19:59:00,54.1,43.8,30.01,NE,39,3.6,3.6,68,0.00,,---,0.00,VWS V13.01,2013-09-25 00:59:00,
2013-09-24 20:04:00,54.0,43.7,30.01,NE,38,0.0,0.0,68,0.00,,---,0.00,VWS V13.01,2013-09-25 01:04:00,
2013-09-24 20:09:00,53.8,43.9,30.01,NE,38,0.0,0.0,69,0.00,,---,0.00,VWS V13.01,2013-09-25 01:09:00,
2013-09-24 20:14:00,53.8,44.2,30.01,NE,38,0.0,0.0,70,0.00,,---,0.00,VWS V13.01,2013-09-25 01:14:00,
2013-09-24 20:19:00,53.8,44.2,30.01,NE,38,0.0,0.0,70,0.00,,---,0.00,VWS V13.01,2013-09-25 01:19:00,
2013-09-24 20:24:00,53.4,43.9,30.01,NE,38,0.0,0.0,70,0.00,,---,0.00,VWS V13.01,2013-09-25 01:24:00,
2013-09-24 20:29:00,53.1,43.5,30.01,NE,38,0.0,0.0,70,0.00,,---,0.00,VWS V13.01,2013-09-25 01:29:00,
2013-09-24 20:34:00,52.9,43.4,30.01,NE,38,0.0,0.0,70,0.00,,---,0.00,VWS V13.01,2013-09-25 01:34:00,
2013-09-24 20:39:00,52.9,43.8,30.01,NE,38,0.0,0.0,71,0.00,,---,0.00,VWS V13.01,2013-09-25 01:39:00,
2013-09-24 20:44:00,52.7,43.6,30.01,NE,38,0.0,0.0,71,0.00,,---,0.00,VWS V13.01,2013-09-25 01:44:00,
2013-09-24 20:49:00,52.7,43.6,30.01,NE,38,0.0,0.0,71,0.00,,---,0.00,VWS V13.01,2013-09-25 01:49:00,
2013-09-24 20:54:00,52.5,43.8,30.01,NE,38,0.0,0.0,72,0.00,,---,0.00,VWS V13.01,2013-09-25 01:54:00,
2013-09-24 20:59:00,52.5,43.8,30.01,NE,38,0.0,0.0,72,0.00,,---,0.00,VWS V13.01,2013-09-25 01:59:00,
2013-09-24 21:04:00,52.5,43.8,30.01,NE,38,0.0,0.0,72,0.00,,---,0.00,VWS V13.01,2013-09-25 02:04:00,
2013-09-24 21:09:00,52.3,43.6,30.01,NE,38,0.0,0.0,72,0.00,,---,0.00,VWS V13.01,2013-09-25 02:09:00,
2013-09-24 21:14:00,52.0,43.2,30.01,NE,38,0.0,0.0,72,0.00,,---,0.00,VWS V13.01,2013-09-25 02:14:00,
2013-09-24 21:19:00,51.8,43.4,30.01,NE,38,0.0,0.0,73,0.00,,---,0.00,VWS V13.01,2013-09-25 02:19:00,
2013-09-24 21:24:00,51.8,43.4,30.01,NE,38,0.0,0.0,73,0.00,,---,0.00,VWS V13.01,2013-09-25 02:24:00,
2013-09-24 21:29:00,51.8,43.4,30.01,NE,38,0.0,0.0,73,0.00,,---,0.00,VWS V13.01,2013-09-25 02:29:00,
2013-09-24 21:34:00,51.8,43.8,30.01,NE,39,0.0,0.0,74,0.00,,---,0.00,VWS V13.01,2013-09-25 02:34:00,
2013-09-24 21:39:00,52.0,44.0,30.01,NE,39,0.0,0.0,74,0.00,,---,0.00,VWS V13.01,2013-09-25 02:39:00,
2013-09-24 21:44:00,52.0,44.0,30.01,NE,39,0.0,0.0,74,0.00,,---,0.00,VWS V13.01,2013-09-25 02:44:00,
2013-09-24 21:49:00,51.8,43.8,30.01,NE,39,0.0,0.0,74,0.00,,---,0.00,VWS V13.01,2013-09-25 02:49:00,
2013-09-24 21:54:00,51.6,44.0,30.01,NE,39,0.0,0.0,75,0.00,,---,0.00,VWS V13.01,2013-09-25 02:54:00,
2013-09-24 21:59:00,51.3,43.3,30.01,NE,38,0.0,0.0,74,0.00,,---,0.00,VWS V13.01,2013-09-25 02:59:00,
2013-09-24 22:04:00,50.9,42.9,30.01,NE,38,0.0,0.0,74,0.00,,---,0.00,VWS V13.01,2013-09-25 03:04:00,
2013-09-24 22:10:00,50.7,42.8,30.01,NE,39,0.0,0.0,74,0.00,,---,0.00,VWS V13.01,2013-09-25 03:10:00,
2013-09-24 22:15:00,50.4,42.4,30.01,NE,38,0.0,0.0,74,0.00,,---,0.00,VWS V13.01,2013-09-25 03:15:00,
2013-09-24 22:20:00,50.2,42.2,30.01,NE,38,0.0,0.0,74,0.00,,---,0.00,VWS V13.01,2013-09-25 03:20:00,
2013-09-24 22:25:00,50.2,42.2,30.01,NE,38,0.0,0.0,74,0.00,,---,0.00,VWS V13.01,2013-09-25 03:25:00,
2013-09-24 22:30:00,50.0,41.7,30.01,NE,38,0.0,0.0,73,0.00,,---,0.00,VWS V13.01,2013-09-25 03:30:00,
2013-09-24 22:35:00,49.8,41.9,30.01,NE,38,0.0,0.0,74,0.00,,---,0.00,VWS V13.01,2013-09-25 03:35:00,
2013-09-24 22:40:00,49.6,41.7,30.01,NE,38,0.0,0.0,74,0.00,,---,0.00,VWS V13.01,2013-09-25 03:40:00,
2013-09-24 22:45:00,49.5,41.5,30.01,NE,38,0.0,0.0,74,0.00,,---,0.00,VWS V13.01,2013-09-25 03:45:00,
2013-09-24 22:50:00,49.3,41.4,30.01,NE,38,0.0,0.0,74,0.00,,---,0.00,VWS V13.01,2013-09-25 03:50:00,
2013-09-24 22:55:00,49.1,41.2,30.01,NE,38,0.0,0.0,74,0.00,,---,0.00,VWS V13.01,2013-09-25 03:55:00,
2013-09-24 23:00:00,49.1,41.2,30.01,NE,38,0.0,0.0,74,0.00,,---,0.00,VWS V13.01,2013-09-25 04:00:00,
2013-09-24 23:01:00,49.1,41.2,30.01,NE,38,0.0,0.0,74,0.00,,---,0.00,VWS V13.01,2013-09-25 04:01:00,
2013-09-24 23:02:00,49.1,41.2,30.01,NE,38,0.0,0.0,74,0.00,,---,0.00,VWS V13.01,2013-09-25 04:02:00,
2013-09-24 23:07:00,49.1,41.2,30.01,NE,38,0.0,0.0,74,0.00,,---,0.00,VWS V13.01,2013-09-25 04:07:00,
2013-09-24 23:12:00,49.1,41.2,30.01,NE,39,0.0,0.0,74,0.00,,---,0.00,VWS V13.01,2013-09-25 04:12:00,
2013-09-24 23:17:00,49.1,41.2,30.01,NE,39,0.0,0.0,74,0.00,,---,0.00,VWS V13.01,2013-09-25 04:17:00,
2013-09-24 23:22:00,49.1,41.2,30.01,NE,38,0.0,0.0,74,0.00,,---,0.00,VWS V13.01,2013-09-25 04:22:00,
2013-09-24 23:27:00,49.1,41.5,30.01,NE,38,0.0,0.0,75,0.00,,---,0.00,VWS V13.01,2013-09-25 04:27:00,
2013-09-24 23:32:00,49.1,41.5,30.01,NE,38,0.0,0.0,75,0.00,,---,0.00,VWS V13.01,2013-09-25 04:32:00,
2013-09-24 23:37:00,48.9,41.4,30.01,NE,38,0.0,0.0,75,0.00,,---,0.00,VWS V13.01,2013-09-25 04:37:00,
2013-09-24 23:42:00,48.7,41.2,30.01,NE,39,0.0,0.0,75,0.00,,---,0.00,VWS V13.01,2013-09-25 04:42:00,
2013-09-24 23:47:00,48.7,41.2,30.01,NE,38,0.0,0.0,75,0.00,,---,0.00,VWS V13.01,2013-09-25 04:47:00,
2013-09-24 23:52:00,48.6,41.0,30.01,NE,38,0.0,0.0,75,0.00,,---,0.00,VWS V13.01,2013-09-25 04:52:00,
2013-09-24 23:57:00,48.6,41.0,30.01,NE,38,0.0,0.0,75,0.00,,---,0.00,VWS V13.01,2013-09-25 04:57:00,